User: anonymous   Login
Location: *
(51.5000°N, 0.1100°W)
Time: 20:09:55
(UTC+00:00)
Language:

BREEZE-M DEB (TANK) - Orbit

View from above orbital plane
View from above orbital plane
View from above satellite
View from above satellite

Ground track
Ground track

The orbit data is extracted from the following two-line orbital elements,

1 39287U 13056C   24207.21929158  .00003792  00000-0  11077-2 0  9995
2 39287  49.4430 165.1089 5179262  79.1886 332.7663  5.28127541205514
Epoch (UTC): 25 July 2024 05:15:46
Eccentricity: 0.5179262
inclination: 49.4430°
perigee height: 336 km
apogee height: 14764 km
right ascension of ascending node: 165.1089°
argument of perigee: 79.1886°
revolutions per day: 5.28127541
mean anomaly at epoch: 332.7663°
orbit number at epoch: 20551

The dashed part of the orbit path shows where the satellite is in the earth's shadow,  

DLR